AKDT,Max TemperatureF,Mean TemperatureF,Min TemperatureF,Max Dew PointF,MeanDew PointF,Min DewpointF,Max Humidity, Mean Humidity, Min Humidity, Max Sea Level PressureIn, Mean Sea Level PressureIn, Min Sea Level PressureIn, Max VisibilityMiles, Mean VisibilityMiles, Min VisibilityMiles, Max Wind SpeedMPH, Mean Wind SpeedMPH, Max Gust SpeedMPH,PrecipitationIn, CloudCover, Events, WindDirDegrees
2013-5-1,46,36,27,30,26,18,100,75,38,29.81,29.67,29.55,10,7,0,12,5,,0.00,5,Fog,50
2013-5-2,41,38,34,38,34,26,100,88,63,29.86,29.80,29.65,10,9,4,14,4,,0.08,8,Rain,35
2013-5-3,44,38,34,36,35,34,100,89,70,29.93,29.87,29.79,10,10,8,14,8,,0.00,6,Rain,356
2013-5-4,38,36,32,36,34,32,100,96,81,29.94,29.82,29.75,10,6,2,9,4,,0.39,8,Rain-Snow,100
2013-5-5,46,38,32,34,24,18,90,56,39,30.13,30.09,29.97,10,10,10,13,4,,0.00,3,,319
2013-5-6,47,40,34,29,25,22,67,55,40,30.26,30.20,30.14,10,10,10,12,4,,0.00,3,,297
2013-5-7,50,42,33,31,26,24,75,57,38,30.29,30.27,30.24,10,10,10,8,2,,0.00,5,,353
2013-5-8,53,44,34,30,25,19,80,48,26,30.27,30.25,30.22,10,10,10,12,4,,0.00,1,,353
2013-5-9,44,44,36,30,24,21,61,45,33,30.32,30.27,30.24,10,10,10,14,4,,0.00,6,Rain,18
2013-5-10,61,48,34,31,29,26,78,49,26,30.24,30.09,29.95,10,10,10,10,4,,0.00,3,,32
2013-5-11,57,49,43,40,35,31,72,60,39,29.93,29.74,29.58,10,10,10,12,5,,0.00,5,,20
2013-5-12,53,47,42,45,40,36,94,78,60,29.58,29.52,29.47,10,10,8,10,2,,0.09,5,Rain,62
2013-5-13,55,43,32,43,30,12,100,64,22,29.47,29.44,29.40,10,9,1,12,5,,0.02,5,Rain,34
2013-5-14,46,40,34,28,16,12,60,39,30,29.63,29.55,29.48,10,10,7,13,6,,0.00,7,,6
2013-5-15,51,44,37,30,25,19,74,50,29,29.75,29.72,29.64,10,10,7,18,5,,0.00,6,Rain,240
2013-5-16,41,38,36,39,35,27,100,87,57,29.73,29.56,29.46,10,10,10,10,7,,0.05,6,Rain,20
2013-5-17,37,34,31,38,34,27,100,97,80,29.55,29.46,29.39,10,5,1,8,3,,0.78,8,Rain-Snow,36
2013-5-18,37,32,26,28,22,11,87,72,36,30.18,29.75,29.56,10,7,2,12,5,,0.00,7,Snow,79
2013-5-19,46,36,26,23,16,11,67,43,28,30.61,30.46,30.21,10,10,10,15,5,,0.00,0,Rain,338
2013-5-20,52,42,31,25,20,17,62,42,26,30.65,30.61,30.55,10,10,10,14,3,,0.00,0,,279
2013-5-21,51,42,33,36,27,21,66,53,31,30.57,30.43,30.28,10,10,10,17,6,,0.00,0,,264
2013-5-22,55,46,38,40,33,28,91,61,37,30.27,30.17,30.12,10,10,10,14,5,,0.00,6,,306
2013-5-23,56,49,42,45,42,36,100,84,53,30.18,30.14,30.09,10,10,10,12,2,,0.01,7,Rain,314
2013-5-24,63,52,41,40,38,35,84,59,41,30.10,30.03,29.97,10,10,10,14,3,,0.00,2,,288
2013-5-25,69,56,44,39,32,21,69,40,19,29.99,29.94,29.88,10,10,10,16,6,21,0.00,0,,14
2013-5-26,60,50,40,42,38,35,91,62,43,29.94,29.91,29.87,10,10,10,13,5,,0.00,4,,283
2013-5-27,72,58,46,45,41,39,80,54,31,29.91,29.84,29.75,10,10,10,14,5,,0.00,1,,352
2013-5-28,68,56,45,49,43,39,78,59,46,29.78,29.71,29.64,10,10,7,14,5,,0.00,0,,263
2013-5-29,74,62,50,44,41,37,75,48,31,29.75,29.67,29.65,10,10,9,14,3,,0.00,0,,287
2013-5-30,65,56,49,44,42,39,81,57,42,30.01,29.90,29.76,10,10,10,14,7,,0.00,0,,276
2013-5-31,57,50,45,45,44,40,89,77,65,30.16,30.09,30.03,10,10,10,14,7,,0.00,1,,273